Weather History for KSVC - February, 2013

Change the Weather History Date:

Friday, February 1, 2013

  Actual Average (KDMN) Record (KDMN)
Temperature  
Mean Temperature 43 °F 45 °F  
Max Temperature 60 °F 60 °F - ()
Min Temperature 26 °F 29 °F - ()
Degree Days  
Heating Degree Days 22    
Moisture  
Dew Point 19 °F    
Average Humidity 47    
Maximum Humidity 80    
Minimum Humidity 11    
Precipitation  
Precipitation 0.00 in 0.02 in - ()
Month to date precipitation 0.02  
Year to date precipitation 0.63  
Sea Level Pressure  
Sea Level Pressure 30.26 in    
Wind  
Wind Speed 9 mph (NNW)    
Max Wind Speed 15 mph    
Max Gust Speed 18 mph    
Visibility 10 miles    
Events      
T = Trace of Precipitation, MM = Missing Value Source: NWS Daily Summary

Daily Weather History Graph

Daily Weather History Graph

Search for Another Location

Airport or City:

Trip Planner

Search our weather history database for the weather conditions in past years. The results will help you decide how hot, cold, wet, or windy it might be!

Date:

Astronomy

Feb. 01, 2013 Rise Set
Actual Time 7:07 AM MST 5:45 PM MST
Civil Twilight 6:41 AM MST 6:11 PM MST
Nautical Twilight 6:11 AM MST 6:41 PM MST
Astronomical Twilight 5:42 AM MST 7:10 PM MST
Moon 11:32 PM MST (2/1) 10:04 AM MST (2/1)
Length of Visible Light 11h 30m
Length of Day
10h 38m
Waning Gibbous, 69% of the Moon is Illuminated
Feb 1
Waning Gibbous
Feb 3
Last Quarter
Feb 10
New
Feb 17
First Quarter
Feb 25
Full

Hourly Weather History & Observations

Time (MST) Temp. Windchill Dew Point Humidity Pressure Visibility Wind Dir Wind Speed Gust Speed Precip Events Conditions
12:15 AM 30.2 °F 22.6 °F 24.8 °F 80% 30.27 in 10.0 mi North 8.1 mph - N/A   Clear
12:35 AM 28.4 °F 20.4 °F 23.0 °F 80% 30.28 in 10.0 mi North 8.1 mph - N/A   Clear
12:55 AM 28.4 °F 20.4 °F 23.0 °F 80% 30.28 in 10.0 mi North 8.1 mph - N/A   Clear
1:15 AM 28.4 °F 19.1 °F 23.0 °F 80% 30.28 in 10.0 mi North 10.4 mph - N/A   Clear
1:35 AM 30.2 °F 21.3 °F 23.0 °F 75% 30.29 in 10.0 mi North 10.4 mph - N/A   Clear
1:55 AM 28.4 °F 19.1 °F 23.0 °F 80% 30.28 in 10.0 mi North 10.4 mph - N/A   Clear
2:15 AM 30.2 °F 21.3 °F 23.0 °F 75% 30.27 in 10.0 mi North 10.4 mph - N/A   Clear
2:35 AM 30.2 °F 21.3 °F 23.0 °F 75% 30.26 in 10.0 mi North 10.4 mph - N/A   Clear
2:55 AM 28.4 °F 19.1 °F 23.0 °F 80% 30.25 in 10.0 mi North 10.4 mph - N/A   Clear
3:15 AM 28.4 °F 19.7 °F 23.0 °F 80% 30.25 in 10.0 mi North 9.2 mph - N/A   Clear
3:35 AM 28.4 °F 18.5 °F 23.0 °F 80% 30.25 in 10.0 mi North 11.5 mph - N/A   Clear
3:55 AM 28.4 °F 19.1 °F 23.0 °F 80% 30.25 in 10.0 mi North 10.4 mph - N/A   Clear
4:15 AM 28.4 °F 19.1 °F 21.2 °F 74% 30.25 in 10.0 mi North 10.4 mph - N/A   Clear
4:35 AM 28.4 °F 19.7 °F 21.2 °F 74% 30.25 in 10.0 mi North 9.2 mph - N/A   Clear
4:55 AM 28.4 °F 19.1 °F 21.2 °F 74% 30.25 in 10.0 mi North 10.4 mph - N/A   Clear
5:15 AM 28.4 °F 19.1 °F 21.2 °F 74% 30.25 in 10.0 mi North 10.4 mph - N/A   Clear
5:35 AM 28.4 °F 19.1 °F 21.2 °F 74% 30.25 in 10.0 mi North 10.4 mph - N/A   Clear
5:55 AM 28.4 °F 18.5 °F 21.2 °F 74% 30.25 in 10.0 mi North 11.5 mph - N/A   Clear
6:15 AM 28.4 °F 19.1 °F 21.2 °F 74% 30.25 in 10.0 mi North 10.4 mph - N/A   Clear
6:35 AM 28.4 °F 19.1 °F 21.2 °F 74% 30.25 in 10.0 mi North 10.4 mph - N/A   Clear
6:55 AM 26.6 °F 18.2 °F 19.4 °F 74% 30.26 in 10.0 mi North 8.1 mph - N/A   Clear
7:15 AM 26.6 °F 17.5 °F 19.4 °F 74% 30.27 in 10.0 mi NNW 9.2 mph - N/A   Clear
7:35 AM 28.4 °F 21.2 °F 21.2 °F 74% 30.28 in 10.0 mi NW 6.9 mph - N/A   Clear
8:15 AM 35.6 °F 29.2 °F 24.8 °F 65% 30.28 in 10.0 mi NNW 8.1 mph - N/A   Clear
8:35 AM 39.2 °F 34.2 °F 26.6 °F 61% 30.29 in 10.0 mi North 6.9 mph - N/A   Clear
8:55 AM 42.8 °F 41.1 °F 26.6 °F 53% 30.29 in 10.0 mi North 3.5 mph - N/A   Clear
9:15 AM 46.4 °F 45.2 °F 23.0 °F 40% 30.29 in 10.0 mi North 3.5 mph - N/A   Clear
9:35 AM 48.2 °F - 17.6 °F 30% 30.29 in 10.0 mi Calm Calm - N/A   Clear
9:55 AM 50.0 °F - 17.6 °F 28% 30.30 in 10.0 mi Calm Calm - N/A   Clear
10:15 AM 50.0 °F - 17.6 °F 28% 30.30 in 10.0 mi SW 4.6 mph - N/A   Clear
10:35 AM 50.0 °F - 17.6 °F 28% 30.30 in 10.0 mi Calm Calm - N/A   Clear
10:55 AM 51.8 °F - 17.6 °F 26% 30.30 in 10.0 mi Calm Calm - N/A   Clear
11:15 AM 51.8 °F - 15.8 °F 24% 30.29 in 10.0 mi SSW 3.5 mph - N/A   Clear
11:35 AM 53.6 °F - 14.0 °F 21% 30.28 in 10.0 mi SSE 3.5 mph - N/A   Clear
11:55 AM 53.6 °F - 15.8 °F 22% 30.27 in 10.0 mi SW 5.8 mph - N/A   Clear
12:15 PM 53.6 °F - 15.8 °F 22% 30.26 in 10.0 mi WSW 5.8 mph - N/A   Clear
12:35 PM 55.4 °F - 15.8 °F 21% 30.25 in 10.0 mi South 4.6 mph - N/A   Clear
12:55 PM 55.4 °F - 15.8 °F 21% 30.24 in 10.0 mi SSW 3.5 mph - N/A   Clear
1:15 PM 57.2 °F - 15.8 °F 20% 30.23 in 10.0 mi SSW 5.8 mph - N/A   Clear
1:35 PM 57.2 °F - 15.8 °F 20% 30.23 in 10.0 mi SW 5.8 mph - N/A   Clear
1:55 PM 59.0 °F - 14.0 °F 17% 30.22 in 10.0 mi SW 3.5 mph - N/A   Clear
2:15 PM 59.0 °F - 12.2 °F 16% 30.21 in 10.0 mi WNW 6.9 mph - N/A   Clear
2:35 PM 59.0 °F - 12.2 °F 16% 30.21 in 10.0 mi NW 9.2 mph - N/A   Clear
2:55 PM 59.0 °F - 15.8 °F 19% 30.21 in 10.0 mi WNW 8.1 mph 18.4 mph N/A   Clear
3:15 PM 60.8 °F - 6.8 °F 12% 30.21 in 10.0 mi WNW 12.7 mph - N/A   Clear
3:35 PM 60.8 °F - 5.0 °F 11% 30.21 in 10.0 mi WNW 12.7 mph - N/A   Clear
3:55 PM 59.0 °F - 5.0 °F 12% 30.21 in 10.0 mi WNW 11.5 mph - N/A   Clear
4:15 PM 59.0 °F - 6.8 °F 13% 30.21 in 10.0 mi West 13.8 mph - N/A   Clear
4:35 PM 59.0 °F - 6.8 °F 13% 30.21 in 10.0 mi WNW 13.8 mph - N/A   Clear
4:55 PM 57.2 °F - 8.6 °F 14% 30.21 in 10.0 mi West 13.8 mph - N/A   Clear
5:15 PM 57.2 °F - 14.0 °F 18% 30.21 in 10.0 mi WNW 8.1 mph - N/A   Clear
5:35 PM 53.6 °F - 15.8 °F 22% 30.22 in 10.0 mi WNW 9.2 mph - N/A   Clear
5:55 PM 50.0 °F - 17.6 °F 28% 30.22 in 10.0 mi NW 6.9 mph - N/A   Clear
6:15 PM 44.6 °F 39.7 °F 17.6 °F 34% 30.23 in 10.0 mi NW 9.2 mph - N/A   Clear
6:35 PM 44.6 °F 38.8 °F 19.4 °F 37% 30.24 in 10.0 mi NW 11.5 mph - N/A   Clear
6:55 PM 44.6 °F 38.1 °F 19.4 °F 37% 30.25 in 10.0 mi NW 13.8 mph - N/A   Clear
7:15 PM 44.6 °F 38.4 °F 19.4 °F 37% 30.26 in 10.0 mi NW 12.7 mph - N/A   Clear
7:35 PM 46.4 °F 40.1 °F 19.4 °F 34% 30.26 in 10.0 mi NW 15.0 mph - N/A   Clear
7:55 PM 44.6 °F 37.8 °F 19.4 °F 37% 30.26 in 10.0 mi NW 15.0 mph - N/A   Clear
8:15 PM 42.8 °F 36.2 °F 21.2 °F 42% 30.27 in 10.0 mi NNW 12.7 mph - N/A   Clear
8:35 PM 39.2 °F 32.5 °F 23.0 °F 52% 30.27 in 10.0 mi North 10.4 mph - N/A   Clear
8:55 PM 41.0 °F 34.3 °F 23.0 °F 49% 30.28 in 10.0 mi North 11.5 mph - N/A   Clear
9:15 PM 39.2 °F 32.0 °F 23.0 °F 52% 30.28 in 10.0 mi North 11.5 mph - N/A   Clear
9:35 PM 39.2 °F 31.6 °F 23.0 °F 52% 30.28 in 10.0 mi NNW 12.7 mph - N/A   Clear
9:55 PM 37.4 °F 30.3 °F 23.0 °F 56% 30.28 in 10.0 mi North 10.4 mph - N/A   Clear
10:15 PM 37.4 °F 30.3 °F 23.0 °F 56% 30.28 in 10.0 mi North 10.4 mph - N/A   Clear
10:35 PM 37.4 °F 32.1 °F 23.0 °F 56% 30.29 in 10.0 mi NNW 6.9 mph - N/A   Clear
10:55 PM 35.6 °F 31.7 °F 23.0 °F 60% 30.29 in 10.0 mi ENE 4.6 mph - N/A   Clear
11:15 PM 35.6 °F 29.9 °F 23.0 °F 60% 30.29 in 10.0 mi North 6.9 mph - N/A   Clear
11:35 PM 35.6 °F 29.2 °F 23.0 °F 60% 30.29 in 10.0 mi North 8.1 mph - N/A   Clear
11:55 PM 35.6 °F 28.6 °F 23.0 °F 60% 30.29 in 10.0 mi North 9.2 mph - N/A   Clear